Regional Weather Roundup
Issued by NWS

Home | Current Version | Previous Version | Graphics & Text | Print | Product List | Glossary Off
Versions: 1 2 3 4 5 6 7 8 9 10 11 12 13 14 15 16 17 18 19 20 21 22 23 24 25 26 27 28 29 30 31 32 33 34 35 36 37 38 39 40 41 42 43 44 45 46 47 48 49 50

000
ASUS43 KTOP 291559
RWRKS

WEATHER ROUNDUP FOR KANSAS
NATIONAL WEATHER SERVICE GOODLAND KS
1000 AM CST THU JAN 29 2015

NOTE:  "FAIR" INDICATES FEW OR NO CLOUDS BELOW 12,000 FEET WITH NO
SIGNIFICANT WEATHER AND/OR OBSTRUCTIONS TO VISIBILITY.

KSZ001>006-013>018-027>032-041>047-291700-
NORTHWEST KANSAS

CITY           SKY/WX    TMP DP  RH WIND       PRES   REMARKS
GOODLAND       MOSUNNY   33  27  78 N17       30.50R WCI  22
HAYS           MOSUNNY   39  23  52 NW17      30.47R WCI  30
HILL CITY      SUNNY     38  25  59 NW25      30.49R WCI  27
RUSSELL        MOSUNNY   40  27  59 NW18      30.45R WCI  31
$$

KSZ061>065-074>080-084>089-291700-
SOUTHWEST KANSAS

CITY           SKY/WX    TMP DP  RH WIND       PRES   REMARKS
DODGE CITY     MOSUNNY   39  27  62 N20       30.48R WCI  29
ELKHART          N/A     40  23  50 N9          N/A
GARDEN CITY    PTSUNNY   36  27  69 N21       30.50R WCI  25
LIBERAL        MOSUNNY   39  28  65 N18       30.52R WCI  30
$$

KSZ066>073-081>083-090>101-291700-
SOUTHEAST KANSAS

CITY           SKY/WX    TMP DP  RH WIND       PRES   REMARKS
CHANUTE        CLOUDY    41  29  62 N17G32    30.35R
COFFEYVILLE    CLOUDY    43  30  60 N17G28    30.37R
HUTCHINSON     PTSUNNY   42  27  55 N20G29    30.44R
MEDICINE LODGE   N/A     42  28  57 N24G31    30.46R
NEWTON         CLOUDY    41  25  52 N18G29    30.42R
PARSONS        CLOUDY    42  30  62 N21G30    30.36R
WICHITA INTL   CLOUDY    43  28  55 N20G35    30.42R
WICHITA JABRA  CLOUDY    42  28  57 N25G35    30.41R
WINFIELD       CLOUDY    43  29  57 N20G30    30.42R
$$

KSZ007>012-019>026-033>040-048>060-102>105-291700-
NORTHEAST KANSAS

CITY           SKY/WX    TMP DP  RH WIND       PRES   REMARKS
CONCORDIA      CLOUDY    40  26  57 N23G35    30.41R WCI  30
EMPORIA        CLOUDY    40  29  64 N15G30    30.37R WCI  32
LAWRENCE       CLOUDY    40  26  57 N25G43    30.34R WCI  29
MANHATTAN      CLOUDY    41  29  62 N10G22    30.40R
OLATHE IND     CLOUDY    38  29  70 NW16G25   30.32R WCI  29
OLATHE EXE     CLOUDY    38  28  67 N17G28    30.30R WCI  28
SALINA         CLOUDY    41  28  60 NW14      30.44R
TOPEKA BILLARD CLOUDY    41  27  57 N20G29    30.37R
TOPEKA FORBES  CLOUDY    42  28  57 N17G26    30.35R
$$


USA.gov is the U.S. government's official web portal to all federal, state and local government web resources and services.